Weather History for Creston, IA

Change the Weather History Date:

Tuesday, January 14, 2014

  Actual Average Record
Temperature  
Mean Temperature 30 °F -  
Max Temperature 39 °F 29 °F 58 °F (1952)
Min Temperature 21 °F 13 °F -20 °F (1957)
Degree Days  
Heating Degree Days 35    
Moisture  
Dew Point 20 °F    
Average Humidity 68    
Maximum Humidity 81    
Minimum Humidity 44    
Precipitation  
Precipitation 0.00 in - - ()
Sea Level Pressure  
Sea Level Pressure 29.93 in    
Wind  
Wind Speed 20 mph (NW)    
Max Wind Speed 37 mph    
Max Gust Speed 52 mph    
Visibility 10 miles    
Events Snow    
Averages and records for this station are not official NWS values.
T = Trace of Precipitation, MM = Missing Value Source: NWS Daily Summary

Daily Weather History Graph

Daily Weather History Graph

Search for Another Location

Airport:

Trip Planner

Search our weather history database for the weather conditions in past years. The results will help you decide how hot, cold, wet, or windy it might be!

Date:

Astronomy

Jan. 14, 2014 Rise Set
Actual Time 7:40 AM CST 5:12 PM CST
Civil Twilight 7:10 AM CST 5:43 PM CST
Nautical Twilight 6:36 AM CST 6:17 PM CST
Astronomical Twilight 6:03 AM CST 6:50 PM CST
Moon 4:19 PM CST (1/14) 6:15 AM CST (1/14)
Length of Visible Light 10h 32m
Length of Day
9h 32m
Waxing Gibbous, 98% of the Moon is Illuminated
Jan 14
Waxing Gibbous
Jan 15
Full
Jan 23
Last Quarter
Jan 30
New
Feb 6
First Quarter

Hourly Weather History & Observations

Time (CST) Temp. Windchill Dew Point Humidity Pressure Visibility Wind Dir Wind Speed Gust Speed Precip Events Conditions
12:15 AM 32.0 °F 22.1 °F 26.6 °F 80% 29.66 in 10.0 mi SSW 13.8 mph - N/A   Clear
12:35 AM 32.0 °F 22.1 °F 26.6 °F 80% 29.66 in 10.0 mi SW 13.8 mph - N/A   Clear
12:55 AM 33.8 °F 25.8 °F 26.6 °F 75% 29.66 in 10.0 mi SW 10.4 mph - N/A   Scattered Clouds
1:15 AM 33.8 °F 25.8 °F 28.4 °F 81% 29.65 in 10.0 mi WSW 10.4 mph - N/A   Overcast
1:35 AM 35.6 °F 28.0 °F 28.4 °F 75% 29.64 in 10.0 mi SW 10.4 mph - N/A   Overcast
1:55 AM 35.6 °F 28.6 °F 28.4 °F 75% 29.63 in 10.0 mi WSW 9.2 mph - N/A   Overcast
2:15 AM 35.6 °F 28.0 °F 28.4 °F 75% 29.64 in 10.0 mi WSW 10.4 mph - N/A   Overcast
2:35 AM 35.6 °F 28.0 °F 30.2 °F 81% 29.64 in 10.0 mi WSW 10.4 mph - N/A   Overcast
2:55 AM 35.6 °F 28.0 °F 28.4 °F 75% 29.64 in 10.0 mi WSW 10.4 mph - N/A   Overcast
3:15 AM 35.6 °F 27.5 °F 28.4 °F 75% 29.64 in 10.0 mi WSW 11.5 mph - N/A   Overcast
3:35 AM 35.6 °F 28.0 °F 30.2 °F 81% 29.65 in 10.0 mi West 10.4 mph - N/A   Overcast
3:55 AM 37.4 °F 29.3 °F 30.2 °F 75% 29.65 in 10.0 mi West 12.7 mph - N/A   Overcast
4:15 AM 37.4 °F 28.5 °F 30.2 °F 75% 29.66 in 10.0 mi West 15.0 mph - N/A   Overcast
4:35 AM 39.2 °F 30.5 °F 30.2 °F 70% 29.67 in 10.0 mi West 16.1 mph - N/A   Overcast
4:55 AM 37.4 °F 27.5 °F 32.0 °F 81% 29.69 in 10.0 mi WNW 18.4 mph - N/A   Mostly Cloudy
5:15 AM 39.2 °F 27.0 °F 32.0 °F 75% 29.70 in 10.0 mi NW 32.2 mph 39.1 mph N/A   Mostly Cloudy
5:35 AM 37.4 °F 24.6 °F 32.0 °F 81% 29.72 in 10.0 mi NW 32.2 mph 40.3 mph N/A   Mostly Cloudy
5:55 AM 37.4 °F 25.0 °F 32.0 °F 81% 29.74 in 10.0 mi NW 29.9 mph 35.7 mph N/A   Mostly Cloudy
6:15 AM 37.4 °F 25.2 °F 28.4 °F 70% 29.76 in 10.0 mi NW 28.8 mph 40.3 mph N/A   Mostly Cloudy
6:35 AM 35.6 °F 23.4 °F 26.6 °F 70% 29.77 in 10.0 mi NW 25.3 mph 36.8 mph N/A   Clear
6:55 AM 35.6 °F 22.5 °F 26.6 °F 70% 29.80 in 10.0 mi NW 29.9 mph 38.0 mph N/A   Clear
7:15 AM 33.8 °F 21.0 °F 26.6 °F 75% 29.82 in 10.0 mi NW 25.3 mph 40.3 mph N/A   Clear
7:35 AM 32.0 °F 18.1 °F 24.8 °F 75% 29.82 in 10.0 mi NW 27.6 mph 40.3 mph N/A   Clear
7:55 AM 32.0 °F 18.4 °F 24.8 °F 75% 29.83 in 10.0 mi NW 26.5 mph 38.0 mph N/A   Clear
8:15 AM 32.0 °F 16.5 °F 21.2 °F 64% 29.85 in 10.0 mi NNW 35.7 mph 42.6 mph N/A   Clear
8:35 AM 32.0 °F 17.4 °F 23.0 °F 69% 29.88 in 10.0 mi NW 31.1 mph 42.6 mph N/A   Mostly Cloudy
8:55 AM 32.0 °F 17.9 °F 21.2 °F 64% 29.90 in 10.0 mi NW 28.8 mph 35.7 mph N/A   Mostly Cloudy
9:15 AM 32.0 °F 18.1 °F 21.2 °F 64% 29.92 in 10.0 mi NNW 27.6 mph 38.0 mph N/A   Overcast
9:35 AM 32.0 °F 19.2 °F 19.4 °F 60% 29.94 in 10.0 mi NW 23.0 mph 33.4 mph N/A   Overcast
9:55 AM 32.0 °F 18.9 °F 19.4 °F 60% 29.94 in 10.0 mi NW 24.2 mph 35.7 mph N/A   Mostly Cloudy
10:15 AM 32.0 °F 18.9 °F 21.2 °F 64% 29.94 in 10.0 mi NW 24.2 mph 34.5 mph N/A   Mostly Cloudy
10:35 AM 33.8 °F 20.1 °F 21.2 °F 60% 29.95 in 10.0 mi NW 29.9 mph 36.8 mph N/A   Mostly Cloudy
10:55 AM 33.8 °F 19.6 °F 21.2 °F 60% 29.96 in 10.0 mi NW 32.2 mph 40.3 mph N/A   Mostly Cloudy
11:15 AM 32.0 °F 17.4 °F 17.6 °F 55% 29.97 in 10.0 mi NW 31.1 mph 42.6 mph N/A   Overcast
11:35 AM 30.2 °F 15.2 °F 17.6 °F 60% 29.98 in 10.0 mi NNW 29.9 mph 43.7 mph N/A   Overcast
11:55 AM 30.2 °F 14.1 °F 14.0 °F 51% 29.98 in 10.0 mi NW 35.7 mph 51.8 mph N/A   Mostly Cloudy
12:15 PM 30.2 °F 15.4 °F 14.0 °F 51% 29.98 in 10.0 mi NW 28.8 mph 44.9 mph N/A   Mostly Cloudy
12:35 PM 30.2 °F 14.1 °F 14.0 °F 51% 29.98 in 10.0 mi NW 35.7 mph - N/A   Overcast
12:55 PM 30.2 °F 14.1 °F 14.0 °F 51% 29.98 in 10.0 mi NNW 35.7 mph 42.6 mph N/A   Overcast
1:15 PM 32.0 °F 17.4 °F 12.2 °F 44% 29.99 in 10.0 mi NW 31.1 mph 42.6 mph N/A   Overcast
1:35 PM 30.2 °F 13.9 °F 12.2 °F 47% 30.00 in 10.0 mi NW 36.8 mph 44.9 mph N/A   Overcast
1:55 PM 28.4 °F 11.8 °F 14.0 °F 55% 30.00 in 10.0 mi NW 34.5 mph 41.4 mph N/A   Overcast
2:15 PM 28.4 °F 13.3 °F 14.0 °F 55% 30.01 in 10.0 mi NW 27.6 mph 46.0 mph N/A   Overcast
2:35 PM 26.6 °F 10.3 °F 14.0 °F 59% 30.02 in 10.0 mi NW 29.9 mph 41.4 mph N/A   Overcast
2:55 PM 26.6 °F 10.3 °F 12.2 °F 55% 30.04 in 10.0 mi NW 29.9 mph 36.8 mph N/A   Overcast
3:15 PM 26.6 °F 10.8 °F 10.4 °F 51% 30.05 in 10.0 mi NW 27.6 mph 39.1 mph N/A   Overcast
3:35 PM 26.6 °F 10.3 °F 10.4 °F 51% 30.06 in 10.0 mi NW 29.9 mph - N/A   Overcast
3:55 PM 26.6 °F 10.6 °F 10.4 °F 51% 30.07 in 10.0 mi NW 28.8 mph 40.3 mph N/A   Overcast
4:15 PM 26.6 °F 10.6 °F 12.2 °F 55% 30.08 in 10.0 mi NW 28.8 mph 35.7 mph N/A   Overcast
4:35 PM 24.8 °F 8.1 °F 14.0 °F 64% 30.09 in 10.0 mi NW 28.8 mph 36.8 mph N/A   Overcast
4:55 PM 24.8 °F 9.0 °F 14.0 °F 64% 30.10 in 8.0 mi NW 25.3 mph 33.4 mph N/A   Overcast
5:15 PM 24.8 °F 8.7 °F 14.0 °F 64% 30.11 in 8.0 mi NNW 26.5 mph 38.0 mph N/A Snow Light Snow
5:35 PM 23.0 °F 8.7 °F 15.8 °F 74% 30.12 in 10.0 mi NNW 18.4 mph 28.8 mph N/A Snow Light Snow
5:55 PM 23.0 °F 7.6 °F 15.8 °F 74% 30.12 in 10.0 mi NW 21.9 mph - N/A Snow Light Snow
6:15 PM 23.0 °F 8.0 °F 15.8 °F 74% 30.13 in 10.0 mi NW 20.7 mph - N/A   Overcast
6:35 PM 23.0 °F 8.3 °F 15.8 °F 74% 30.14 in 10.0 mi NW 19.6 mph 31.1 mph N/A   Overcast
6:55 PM 23.0 °F 8.3 °F 17.6 °F 80% 30.14 in 9.0 mi NW 19.6 mph 25.3 mph N/A Snow Light Snow
7:15 PM 23.0 °F 8.7 °F 15.8 °F 74% 30.14 in 10.0 mi NW 18.4 mph 28.8 mph N/A   Overcast
7:35 PM 23.0 °F 8.7 °F 15.8 °F 74% 30.14 in 10.0 mi NNW 18.4 mph - N/A   Overcast
7:55 PM 23.0 °F 9.6 °F 15.8 °F 74% 30.14 in 10.0 mi NW 16.1 mph - N/A   Overcast
8:15 PM 23.0 °F 9.6 °F 15.8 °F 74% 30.14 in 10.0 mi NNW 16.1 mph - N/A   Overcast
8:35 PM 23.0 °F 10.6 °F 15.8 °F 74% 30.14 in 10.0 mi NW 13.8 mph - N/A   Overcast
8:55 PM 21.2 °F 8.3 °F 15.8 °F 80% 30.14 in 10.0 mi NNW 13.8 mph 20.7 mph N/A   Overcast
9:15 PM 21.2 °F 9.5 °F 15.8 °F 80% 30.13 in 10.0 mi NW 11.5 mph - N/A   Overcast
9:35 PM 23.0 °F 10.1 °F 14.0 °F 68% 30.13 in 10.0 mi NW 15.0 mph 20.7 mph N/A   Overcast
9:55 PM 23.0 °F 6.9 °F 14.0 °F 68% 30.14 in 10.0 mi NW 24.2 mph - N/A   Overcast
10:15 PM 21.2 °F 5.2 °F 14.0 °F 74% 30.14 in 10.0 mi NNW 21.9 mph 28.8 mph N/A   Overcast
10:35 PM 21.2 °F 5.6 °F 14.0 °F 74% 30.14 in 10.0 mi NNW 20.7 mph - N/A Snow Light Snow
10:55 PM 21.2 °F 6.8 °F 15.8 °F 80% 30.14 in 2.5 mi NNW 17.3 mph 23.0 mph N/A Snow Light Snow
11:15 PM 21.2 °F 7.3 °F 15.8 °F 80% 30.14 in 10.0 mi NNW 16.1 mph - N/A Snow Light Snow
11:35 PM 21.2 °F 6.8 °F 14.0 °F 74% 30.14 in 10.0 mi NNW 17.3 mph - N/A   Overcast
11:55 PM 21.2 °F 6.4 °F 14.0 °F 74% 30.14 in 10.0 mi NNW 18.4 mph 29.9 mph N/A   Overcast